Date,TemperatureHighF,TemperatureAvgF,TemperatureLowF,DewpointHighF,DewpointAvgF,DewpointLowF,HumidityHigh,HumidityAvg,HumidityLow,PressureMaxIn,PressureMinIn,WindSpeedMaxMPH,WindSpeedAvgMPH,GustSpeedMaxMPH,PrecipitationSumIn
2013-1-1,35.0,32.5,23.0,29.0,23.4,12.0,78,69,56,29.49,29.33,3,0,10,0.00
2013-1-2,28.0,23.5,17.0,18.0,14.1,10.0,77,67,61,29.65,29.48,3,0,11,0.00
2013-1-3,28.0,22.2,11.0,19.0,13.8,5.0,75,70,57,29.68,29.55,2,0,6,0.00
2013-1-4,35.0,30.3,27.0,26.0,21.8,19.0,80,71,61,29.55,29.43,1,0,9,0.00
2013-1-5,38.0,33.2,30.0,25.0,22.6,19.0,73,65,56,29.77,29.48,3,0,12,0.00
2013-1-6,41.0,34.6,31.0,31.0,27.1,23.0,88,74,62,29.71,29.47,1,0,5,0.00
2013-1-7,41.0,35.8,30.0,30.0,25.7,21.0,81,67,49,29.89,29.53,2,0,9,0.00
2013-1-8,44.0,35.7,28.0,31.0,27.4,23.0,85,72,59,29.91,29.83,2,0,8,0.00
2013-1-9,43.0,38.0,33.0,36.0,31.3,26.0,83,76,69,29.88,29.63,2,0,8,0.00
2013-1-10,43.0,39.7,36.0,33.0,25.8,23.0,73,57,46,30.04,29.70,3,0,11,0.00
2013-1-11,41.0,35.8,32.0,40.0,29.7,23.0,95,79,64,30.03,29.63,2,0,6,0.22
2013-1-12,44.0,42.1,40.0,43.0,41.1,39.0,96,95,95,29.68,29.59,1,0,5,0.25
2013-1-13,45.0,42.7,40.0,44.0,41.7,39.0,97,96,96,29.67,29.52,1,0,5,0.00
2013-1-14,54.0,46.1,34.0,52.0,42.4,30.0,97,87,67,29.80,29.42,2,0,9,0.04
2013-1-15,36.0,33.6,32.0,31.0,28.3,26.0,91,81,70,29.84,29.72,2,0,8,0.12
2013-1-16,33.0,31.3,29.0,32.0,29.4,27.0,95,93,81,29.74,29.34,1,0,6,0.49
2013-1-17,40.0,34.5,30.0,31.0,28.7,21.0,95,80,63,29.59,29.41,2,0,9,0.01
2013-1-18,29.0,23.9,21.0,21.0,11.6,7.0,73,59,46,29.96,29.52,3,1,11,0.00
2013-1-19,44.0,35.6,25.0,30.0,23.6,13.0,74,62,52,29.89,29.42,3,0,9,0.00
2013-1-20,48.0,38.9,27.0,32.0,24.8,12.0,78,58,34,29.51,29.18,4,1,12,0.00
2013-1-21,29.0,25.7,22.0,20.0,14.4,10.0,80,62,52,29.58,29.31,2,0,9,0.00
2013-1-22,24.0,17.8,11.0,18.0,3.0,-7.0,78,52,39,29.65,29.31,4,1,15,0.00
2013-1-23,18.0,12.2,8.0,1.0,-2.0,-6.0,63,52,42,29.71,29.63,3,0,11,0.00
2013-1-24,20.0,13.2,6.0,4.0,0.7,-2.0,75,58,40,29.84,29.61,4,1,16,0.00
2013-1-25,22.0,16.0,11.0,16.0,6.0,0.0,87,65,46,29.88,29.55,2,0,9,0.03
2013-1-26,24.0,17.3,12.0,12.0,8.8,5.0,87,70,51,29.83,29.52,2,0,10,0.03
2013-1-27,30.0,22.7,15.0,13.0,10.4,6.0,79,60,41,29.99,29.83,2,0,9,0.00
2013-1-28,32.0,28.4,24.0,30.0,22.7,12.0,94,80,57,29.97,29.50,1,0,7,0.19
2013-1-29,42.0,36.0,32.0,40.0,34.1,30.0,95,93,88,29.65,29.49,2,0,7,0.06
2013-1-30,52.0,45.4,35.0,51.0,44.4,34.0,97,96,95,29.61,28.90,3,0,9,0.06
2013-1-31,53.0,37.8,27.0,52.0,24.0,12.0,97,58,42,29.23,28.74,4,1,16,0.79
2013-2-1,30.0,25.6,21.0,16.0,10.8,5.0,68,53,38,29.68,29.24,4,1,17,0.07
2013-2-2,27.0,22.2,17.0,19.0,11.2,7.0,89,63,42,29.77,29.56,2,0,9,0.02
2013-2-3,28.0,22.7,17.0,19.0,16.9,15.0,91,79,61,29.56,29.28,3,0,8,0.02
2013-2-4,29.0,24.3,20.0,20.0,12.8,9.0,85,62,44,29.46,29.29,3,1,12,0.00
2013-2-5,27.0,25.3,23.0,24.0,20.8,14.0,91,83,65,29.48,29.40,2,0,5,0.00
2013-2-6,36.0,29.8,25.0,27.0,20.7,7.0,93,71,44,29.84,29.41,4,1,10,0.00
2013-2-7,30.0,24.5,19.0,20.0,9.9,4.0,75,54,39,30.00,29.83,3,0,9,0.00
2013-2-8,31.0,29.0,25.0,29.0,25.8,21.0,93,88,74,29.85,29.13,8,4,18,0.47
2013-2-9,28.0,23.7,17.0,25.0,19.8,10.0,93,86,74,29.80,29.23,6,2,18,0.55
2013-2-10,34.0,22.6,13.0,19.0,9.8,5.0,80,60,31,29.96,29.80,3,0,14,0.03
2013-2-11,41.0,35.4,27.0,40.0,33.3,19.0,96,92,72,29.83,29.18,1,0,4,0.23
2013-2-12,41.0,36.9,34.0,37.0,29.2,23.0,96,75,60,29.46,29.21,3,0,12,0.05
2013-2-13,41.0,34.7,29.0,30.0,24.6,21.0,92,67,53,29.44,29.21,2,0,7,0.04
2013-2-14,41.0,34.1,28.0,31.0,27.9,25.0,94,79,58,29.50,29.22,2,0,5,0.05
2013-2-15,49.0,39.5,31.0,36.0,31.5,27.0,92,74,49,29.52,29.42,1,0,8,0.00
2013-2-16,38.0,31.8,27.0,32.0,24.9,15.0,93,76,59,29.47,29.23,3,1,14,0.02
2013-2-17,29.0,23.0,14.0,15.0,7.3,1.0,60,51,38,29.43,29.13,6,3,20,0.01
2013-2-18,30.0,22.3,14.0,15.0,7.9,3.0,64,54,41,29.71,29.43,5,2,14,0.00
2013-2-19,43.0,34.8,26.0,39.0,27.8,14.0,95,76,56,29.70,29.18,3,0,9,0.24
2013-2-20,35.0,28.6,22.0,29.0,17.0,10.0,79,62,49,29.44,29.19,5,2,14,0.08
2013-2-21,31.0,25.2,22.0,16.0,13.8,12.0,71,62,51,29.78,29.44,4,2,14,0.00
2013-2-22,36.0,28.8,22.0,27.0,21.0,14.0,83,73,56,29.90,29.76,4,1,13,0.00
2013-2-23,38.0,34.1,32.0,37.0,32.1,27.0,95,92,83,29.78,29.32,7,2,14,0.02
2013-2-24,42.0,35.5,31.0,38.0,32.0,24.0,96,87,67,29.45,29.25,4,1,9,0.01
2013-2-25,43.0,35.4,29.0,29.0,25.6,22.0,78,68,54,29.74,29.44,2,0,11,0.00
2013-2-26,38.0,34.8,31.0,32.0,28.9,26.0,92,79,63,29.80,29.46,9,2,21,0.11
2013-2-27,43.0,39.1,33.0,41.0,37.4,31.0,96,94,92,29.46,29.01,13,5,35,0.85
2013-2-28,46.0,40.0,37.0,40.0,34.9,31.0,93,82,65,29.13,29.05,1,0,7,0.03
2013-3-1,43.0,36.9,31.0,34.0,30.0,26.0,92,77,60,29.28,29.10,3,0,9,0.01
2013-3-2,38.0,33.8,29.0,27.0,25.4,23.0,90,72,62,29.27,29.19,2,0,7,0.00
2013-3-3,39.0,30.9,27.0,26.0,21.9,18.0,88,70,52,29.24,29.15,3,0,16,0.00
2013-3-4,39.0,31.0,26.0,24.0,20.0,17.0,76,64,51,29.38,29.23,4,1,14,0.00
2013-3-5,45.0,36.0,28.0,28.0,24.5,20.0,77,64,49,29.53,29.38,2,1,13,0.00
2013-3-6,39.0,36.8,34.0,36.0,30.2,27.0,90,77,66,29.50,29.39,8,4,21,0.02
2013-3-7,37.0,33.3,31.0,32.0,28.9,25.0,94,84,72,29.57,29.42,6,2,18,0.18
2013-3-8,37.0,32.5,29.0,31.0,28.2,26.0,93,85,68,29.69,29.49,5,2,15,0.51
2013-3-9,48.0,39.2,30.0,28.0,23.1,19.0,76,54,33,29.82,29.68,4,1,12,0.01
2013-3-10,46.0,38.3,31.0,35.0,30.9,21.0,90,75,53,29.88,29.80,3,0,8,0.00
2013-3-11,50.0,41.9,35.0,44.0,38.3,32.0,94,87,73,29.82,29.61,3,0,9,0.00
2013-3-12,53.0,48.8,41.0,52.0,46.8,37.0,95,93,85,29.62,29.20,8,2,16,1.23
2013-3-13,49.0,41.8,36.0,38.0,31.5,25.0,90,69,44,29.38,29.29,2,0,9,0.22
2013-3-14,36.0,31.5,26.0,29.0,15.8,9.0,78,53,33,29.41,29.34,4,2,14,0.00
2013-3-15,40.0,33.9,26.0,30.0,21.6,12.0,71,60,51,29.44,29.22,3,0,10,0.00
2013-3-16,36.0,32.3,30.0,28.0,23.2,19.0,90,70,52,29.38,29.28,3,0,7,0.02
2013-3-17,37.0,31.4,26.0,27.0,20.1,13.0,91,65,39,29.71,29.42,2,0,7,0.01
2013-3-18,32.0,27.4,23.0,25.0,12.8,7.0,88,54,42,29.91,29.68,4,2,14,0.01
2013-3-19,36.0,33.0,31.0,33.0,30.8,28.0,95,92,83,29.50,29.22,8,1,17,0.44
2013-3-20,41.0,34.2,26.0,28.0,21.2,19.0,81,60,44,29.36,29.28,3,0,9,0.03
2013-3-21,36.0,31.9,29.0,26.0,21.0,16.0,85,65,43,29.34,29.14,2,0,7,0.00
2013-3-22,39.0,32.4,26.0,23.0,19.1,13.0,68,58,49,29.36,29.21,3,1,9,0.00
2013-3-23,43.0,35.8,30.0,25.0,21.8,19.0,69,57,43,29.39,29.30,4,1,15,0.00
2013-3-24,44.0,36.1,28.0,26.0,23.1,20.0,74,60,45,29.44,29.23,3,0,8,0.00
2013-3-25,41.0,36.7,33.0,34.0,27.9,24.0,89,71,53,29.24,28.97,6,1,14,0.00
2013-3-26,50.0,41.2,35.0,34.0,28.7,26.0,74,62,43,29.30,29.12,3,0,11,0.00
2013-3-27,52.0,41.2,32.0,30.0,26.1,22.0,69,56,37,29.46,29.36,3,0,9,0.00
2013-3-28,47.0,41.5,34.0,34.0,30.4,28.0,78,65,54,29.60,29.46,2,0,9,0.00
2013-3-29,55.0,44.5,37.0,32.0,29.2,27.0,70,56,37,29.63,29.55,3,0,9,0.00
2013-3-30,56.0,45.4,35.0,34.0,26.7,20.0,79,51,27,29.66,29.57,2,0,9,0.00
2013-3-31,53.0,45.8,39.0,41.0,29.7,-99.9,94,57,38,29.64,29.20,5,1,13,0.13
2013-4-1,61.0,45.5,35.0,46.0,37.0,13.0,96,74,39,29.39,29.12,3,1,12,0.13
2013-4-2,42.0,35.3,29.0,19.0,15.0,12.0,65,44,31,29.57,29.39,4,1,15,0.00
2013-4-3,45.0,36.0,29.0,18.0,14.3,10.0,60,42,29,29.78,29.56,5,1,12,0.00
2013-4-4,51.0,38.5,28.0,32.0,21.0,14.0,76,51,28,29.87,29.58,3,1,9,0.00
2013-4-5,60.0,46.4,37.0,32.0,24.4,16.0,75,46,22,29.59,29.23,3,1,16,0.00
2013-4-6,49.0,40.0,32.0,28.0,15.0,3.0,69,39,16,29.81,29.48,4,1,16,0.00
2013-4-7,53.0,44.0,34.0,43.0,34.6,27.0,88,71,49,29.81,29.52,6,1,13,0.00
2013-4-8,70.0,55.7,44.0,45.0,41.7,38.0,91,63,31,29.59,29.49,2,0,8,0.00
2013-4-9,78.0,63.7,48.0,52.0,43.9,37.0,90,54,28,29.53,29.44,4,1,12,0.00
2013-4-10,69.0,59.5,50.0,54.0,48.9,39.0,95,70,43,29.51,29.34,4,0,11,0.34
2013-4-11,62.0,53.1,44.0,56.0,47.9,37.0,96,83,61,29.57,29.32,5,1,12,0.34
2013-4-12,44.0,40.6,38.0,39.0,35.7,30.0,95,84,60,29.57,29.24,12,5,28,0.30
2013-4-13,55.0,45.5,37.0,40.0,36.4,33.0,95,73,50,29.47,29.26,2,0,8,0.06
2013-4-14,54.0,48.0,41.0,39.0,31.7,27.0,78,54,37,29.73,29.47,4,1,12,0.00
2013-4-15,55.0,46.0,39.0,35.0,29.9,24.0,72,54,41,29.89,29.73,4,1,9,0.00
2013-4-16,62.0,51.2,41.0,52.0,44.8,35.0,89,79,65,29.89,29.64,4,1,13,0.00
2013-4-17,65.0,58.0,51.0,54.0,41.0,33.0,90,57,33,29.80,29.63,3,0,10,0.00
2013-4-18,58.0,51.4,43.0,48.0,40.3,32.0,90,68,43,29.86,29.64,4,1,15,0.00
2013-4-19,70.0,59.6,51.0,62.0,56.4,48.0,96,89,73,29.64,29.19,5,1,11,0.04
2013-4-20,60.0,51.0,43.0,59.0,37.8,23.0,95,65,35,29.80,29.19,4,1,12,0.18
2013-4-21,50.0,42.7,33.0,30.0,23.0,20.0,66,47,31,30.12,29.78,3,1,11,0.01
2013-4-22,52.0,43.6,35.0,36.0,29.4,23.0,84,60,37,30.17,30.02,7,3,23,0.00
2013-4-23,50.0,42.0,36.0,41.0,35.8,30.0,91,79,70,30.01,29.62,4,1,11,0.00
2013-4-24,68.0,51.7,40.0,50.0,43.4,37.0,92,75,48,29.62,29.35,3,1,8,0.00
2013-4-25,61.0,53.4,44.0,50.0,32.5,20.0,94,50,21,29.77,29.38,3,1,10,0.00
2013-4-26,63.0,53.9,43.0,36.0,31.9,26.0,71,45,26,29.92,29.77,3,0,8,0.00
2013-4-27,66.0,54.8,43.0,34.0,28.2,18.0,58,39,16,29.93,29.79,2,0,9,0.00
2013-4-28,67.0,54.2,43.0,47.0,37.3,29.0,86,55,32,29.83,29.72,3,0,9,0.00
2013-4-29,55.0,52.0,50.0,49.0,43.9,35.0,88,74,54,29.76,29.71,2,0,9,0.01
2013-4-30,64.0,55.4,49.0,46.0,36.5,25.0,81,53,27,29.85,29.73,5,1,9,0.01
2013-5-1,64.0,55.3,45.0,45.0,35.1,25.0,80,48,25,29.99,29.84,6,1,16,0.00
2013-5-2,71.0,58.6,47.0,45.0,41.1,35.0,82,56,30,29.99,29.83,2,0,7,0.00
2013-5-3,62.0,54.8,47.0,44.0,39.5,33.0,84,58,37,29.97,29.87,5,1,12,0.00
2013-5-4,66.0,54.2,45.0,46.0,42.9,40.0,91,68,42,29.89,29.75,3,0,9,0.00
2013-5-5,59.0,50.4,41.0,43.0,40.1,36.0,90,70,44,29.81,29.73,3,0,9,0.00
2013-5-6,65.0,53.6,42.0,52.0,46.1,39.0,93,77,57,29.78,29.67,1,0,6,0.00
2013-5-7,70.0,60.1,49.0,57.0,51.6,45.0,90,75,55,29.70,29.62,2,0,11,0.00
2013-5-8,61.0,58.1,53.0,60.0,56.6,52.0,96,94,88,29.64,29.51,3,0,11,0.50
2013-5-9,62.0,56.3,52.0,59.0,54.9,51.0,97,95,85,29.54,29.41,0,0,3,0.26
2013-5-10,76.0,63.7,54.0,61.0,53.2,-99.9,95,74,46,29.52,29.43,1,0,5,0.05
2013-5-11,64.0,60.5,58.0,63.0,59.0,54.0,96,94,86,29.42,29.23,0,0,6,0.38
2013-5-12,68.0,58.3,48.0,58.0,46.1,-99.9,97,69,35,29.42,29.18,2,0,7,0.01
2013-5-13,54.0,47.6,39.0,36.0,32.0,27.0,79,56,38,29.60,29.42,1,0,6,0.01
2013-5-14,58.0,48.7,38.0,38.0,31.4,25.0,78,54,29,29.63,29.53,2,0,8,0.00
2013-5-15,62.0,53.3,44.0,54.0,46.3,37.0,90,77,56,29.58,29.21,2,0,7,0.01
2013-5-16,77.0,61.4,57.0,56.0,31.1,-99.9,90,61,32,29.35,29.23,1,0,5,0.01
2013-5-17,68.0,60.9,54.0,45.0,37.7,-99.9,63,49,38,29.72,29.35,1,0,6,0.00
2013-5-18,69.0,57.8,50.0,54.0,47.8,36.0,95,71,46,29.83,29.72,0,0,4,0.03
2013-5-19,56.0,54.6,53.0,55.0,53.4,51.0,96,95,93,29.85,29.70,1,0,7,0.13
2013-5-20,74.0,63.8,55.0,67.0,60.9,54.0,97,91,77,29.70,29.49,1,0,4,0.02
2013-5-21,84.0,72.4,62.0,71.0,66.4,61.0,96,82,61,29.51,29.37,0,0,4,0.00
2013-5-22,74.0,65.1,56.0,68.0,62.2,55.0,96,90,78,29.46,29.38,1,0,9,0.00
2013-5-23,75.0,65.6,63.0,71.0,64.3,62.0,97,95,86,29.42,29.30,1,0,6,2.72
2013-5-24,63.0,55.0,44.0,62.0,54.0,42.0,97,96,94,29.44,29.20,1,0,10,0.66
2013-5-25,49.0,45.0,42.0,47.0,43.1,40.0,96,93,85,29.49,29.38,3,0,12,0.49
2013-5-26,62.0,52.8,43.0,47.0,41.7,37.0,93,68,47,29.70,29.42,2,0,10,0.03
2013-5-27,71.0,59.2,46.0,46.0,42.0,37.0,77,55,32,29.75,29.64,1,0,6,0.00
2013-5-28,66.0,57.6,53.0,55.0,49.0,40.0,96,75,42,29.74,29.65,0,0,4,0.28
2013-5-29,77.0,65.0,56.0,70.0,61.8,55.0,97,90,76,29.66,29.53,0,0,3,0.06
2013-5-30,88.0,76.2,66.0,72.0,66.6,63.0,93,74,51,30.17,29.59,1,0,5,0.00
2013-5-31,90.0,77.6,69.0,71.0,66.1,63.0,83,69,43,30.20,30.07,0,0,2,0.00
2013-6-1,87.0,76.2,67.0,72.0,67.0,62.0,91,74,56,30.10,29.98,1,0,5,0.00
2013-6-2,86.0,74.2,64.0,72.0,66.6,-99.9,95,81,61,30.00,29.85,0,0,7,0.06
2013-6-3,74.0,68.3,63.0,68.0,64.5,53.0,96,88,69,29.96,29.89,0,0,5,1.36
2013-6-4,70.0,62.6,52.0,54.0,47.3,40.0,79,59,40,30.20,29.96,1,0,6,0.12
2013-6-5,70.0,61.9,53.0,55.0,46.2,39.0,75,57,44,30.30,30.20,1,0,7,0.00
2013-6-6,69.0,59.6,53.0,58.0,53.6,48.0,95,82,53,30.24,30.12,1,0,10,0.14
2013-6-7,59.0,57.7,56.0,58.0,56.7,55.0,96,96,95,30.12,29.76,4,1,13,2.57
2013-6-8,74.0,63.1,54.0,66.0,59.4,53.0,97,88,74,30.14,29.69,2,0,8,1.82
2013-6-9,77.0,68.1,59.0,63.0,59.3,56.0,93,75,55,30.26,30.14,0,0,4,0.04
2013-6-10,67.0,62.8,59.0,64.0,60.3,58.0,96,91,82,30.25,29.96,3,1,14,0.93
2013-6-11,77.0,66.7,59.0,71.0,63.5,57.0,97,90,74,29.96,29.69,2,0,7,0.76
2013-6-12,73.0,66.2,60.0,58.0,55.6,53.0,86,70,54,29.94,29.77,1,0,9,0.04
2013-6-13,63.0,58.2,53.0,58.0,55.2,52.0,95,90,70,29.92,29.60,5,1,17,0.98
2013-6-14,69.0,57.0,50.0,59.0,53.4,49.0,96,88,70,29.97,29.62,3,0,12,0.87
2013-6-15,75.0,64.5,58.0,62.0,55.7,52.0,89,75,47,30.09,29.96,0,0,3,0.02
2013-6-16,76.0,66.5,60.0,66.0,57.3,51.0,87,73,52,30.07,29.85,0,0,4,0.00
2013-6-17,82.0,69.9,63.0,69.0,64.2,60.0,95,83,60,29.99,29.93,0,0,3,0.11
2013-6-18,80.0,68.2,62.0,71.0,63.9,59.0,96,87,63,29.99,29.91,1,0,9,0.23
2013-6-19,73.0,64.0,56.0,61.0,54.4,46.0,95,74,38,30.26,29.97,1,0,9,0.19
2013-6-20,78.0,65.9,57.0,61.0,56.1,52.0,90,72,42,30.35,30.26,1,0,7,0.00
2013-6-22,82.0,74.6,64.0,64.0,61.6,57.0,77,64,52,30.35,30.22,0,0,4,0.00
2013-6-23,86.0,75.2,62.0,72.0,66.7,57.0,92,76,57,30.27,30.15,1,0,6,0.00
2013-6-24,91.0,76.6,70.0,75.0,70.0,68.0,95,82,48,30.16,30.03,0,0,10,0.00
2013-6-25,87.0,77.7,67.0,75.0,70.2,65.0,94,78,62,30.03,29.88,0,0,5,0.17
2013-6-26,80.0,75.1,71.0,72.0,68.7,67.0,91,81,72,29.92,29.84,0,0,5,0.00
2013-6-27,82.0,73.2,68.0,73.0,69.0,66.0,95,87,71,29.91,29.65,3,0,11,1.19
2013-6-28,82.0,74.2,69.0,74.0,70.1,65.0,96,88,70,29.65,29.55,1,0,7,1.25
2013-6-29,81.0,73.0,67.0,71.0,67.4,64.0,94,83,65,29.79,29.57,1,0,6,0.02
2013-6-30,80.0,72.2,67.0,75.0,69.9,66.0,96,92,80,30.01,29.79,1,0,8,0.01
2013-7-1,73.0,71.1,70.0,72.0,69.8,68.0,96,96,94,30.14,29.99,0,0,5,1.85
2013-7-2,80.0,72.9,70.0,75.0,71.0,69.0,97,94,84,30.26,30.14,0,0,6,0.02
2013-7-3,82.0,73.8,69.0,76.0,71.2,68.0,96,92,80,30.33,30.26,0,0,4,0.03
2013-7-4,87.0,78.1,72.0,78.0,73.5,71.0,97,86,69,30.33,30.23,0,0,7,0.01
2013-7-5,88.0,78.6,71.0,78.0,72.9,69.0,94,83,61,30.29,30.17,0,0,5,0.00
2013-7-6,89.0,79.4,73.0,77.0,73.7,71.0,93,83,64,30.21,30.12,0,0,5,0.00
2013-7-7,90.0,82.4,74.0,78.0,75.0,70.0,93,79,63,30.12,29.98,0,0,3,0.00
2013-7-8,87.0,75.8,70.0,74.0,67.5,-99.9,91,79,57,30.11,30.03,1,0,5,0.18
2013-7-9,84.0,76.0,69.0,74.0,70.4,66.0,94,83,63,30.15,30.07,0,0,5,0.21
2013-7-10,83.0,74.0,70.0,78.0,68.6,-99.9,95,87,77,30.10,29.88,0,0,3,0.13
2013-7-11,80.0,75.2,70.0,73.0,70.8,64.0,95,86,74,30.01,29.88,0,0,3,0.02
2013-7-12,75.0,69.8,64.0,70.0,65.0,62.0,95,85,75,30.20,30.01,3,1,13,0.12
2013-7-13,77.0,70.0,63.0,74.0,68.3,62.0,96,94,87,30.38,30.20,4,1,14,0.18
2013-7-14,87.0,77.5,72.0,77.0,73.4,71.0,97,88,67,30.42,30.31,1,0,6,0.04
2013-7-15,90.0,81.0,74.0,77.0,73.0,69.0,89,77,61,30.32,30.23,0,0,7,0.00
2013-7-16,90.0,81.3,73.0,74.0,68.8,66.0,83,67,48,30.28,30.22,2,0,10,0.00
2013-7-17,91.0,80.8,75.0,76.0,70.4,67.0,82,72,49,30.27,30.14,0,0,6,0.00
2013-7-18,94.0,82.9,75.0,79.0,73.0,69.0,86,73,50,30.14,30.03,1,0,3,0.00
2013-7-19,95.0,86.2,76.0,79.0,75.3,72.0,89,71,55,30.04,29.87,1,0,7,0.00
2013-7-20,91.0,82.1,76.0,77.0,71.4,-99.9,85,72,56,29.92,29.79,0,0,5,0.00
2013-7-21,84.0,75.9,70.0,70.0,65.2,62.0,86,70,51,30.04,29.91,2,0,11,0.00
2013-7-22,81.0,72.8,68.0,74.0,69.9,65.0,96,90,76,30.04,29.91,1,0,7,0.14
2013-7-23,84.0,74.9,71.0,76.0,72.0,70.0,96,91,73,29.90,29.66,1,0,6,0.86
2013-7-24,79.0,73.5,64.0,72.0,67.6,54.0,96,82,69,30.01,29.69,2,0,13,0.13
2013-7-25,64.0,61.5,59.0,58.0,55.1,51.0,85,80,70,30.15,30.01,3,0,15,0.00
2013-7-26,77.0,67.7,61.0,65.0,60.9,57.0,91,80,60,30.14,30.09,2,0,11,0.01
2013-7-27,81.0,71.3,62.0,68.0,63.8,61.0,95,78,55,30.15,30.06,1,0,8,0.00
2013-7-28,74.0,69.1,64.0,68.0,66.0,62.0,96,90,75,30.08,30.03,2,0,8,0.18
2013-7-29,81.0,71.0,66.0,70.0,67.2,60.0,97,88,54,30.17,30.05,1,0,9,0.01
2013-7-30,77.0,67.8,62.0,62.0,58.7,56.0,82,73,57,30.24,30.17,0,0,6,0.01
2013-7-31,80.0,70.5,61.0,64.0,60.1,57.0,88,71,47,30.24,30.13,1,0,5,0.00
2013-8-1,73.0,66.3,64.0,68.0,63.9,60.0,96,92,80,30.14,29.92,0,0,5,0.77
2013-8-2,80.0,70.3,64.0,69.0,65.9,63.0,97,87,61,29.99,29.88,1,0,7,0.57
2013-8-3,75.0,67.8,63.0,69.0,65.3,58.0,96,91,78,29.99,29.93,0,0,5,0.12
2013-8-4,76.0,67.1,61.0,65.0,60.2,54.0,95,80,54,30.05,29.93,1,0,8,0.43
2013-8-5,72.0,63.1,58.0,57.0,53.1,48.0,85,71,45,30.14,30.05,2,0,10,0.43
2013-8-6,78.0,67.0,58.0,63.0,56.7,52.0,84,71,47,30.22,30.13,2,0,8,0.00
2013-8-7,75.0,68.4,62.0,66.0,62.6,58.0,90,82,69,30.24,30.16,3,0,10,0.00
2013-8-8,77.0,70.6,67.0,74.0,68.9,66.0,96,94,85,30.17,30.10,2,0,7,0.17
2013-8-9,82.0,72.7,70.0,78.0,71.2,68.0,97,95,85,30.11,29.88,0,0,11,0.33
2013-8-10,79.0,72.0,64.0,70.0,64.6,55.0,96,79,60,30.14,29.93,1,0,8,0.14
2013-8-11,75.0,65.4,57.0,62.0,56.0,51.0,84,72,54,30.21,30.12,1,0,4,0.00
2013-8-21,85.0,75.9,67.0,68.0,63.8,61.0,85,68,46,30.27,30.14,1,0,5,0.00
2013-8-22,76.0,70.2,68.0,71.0,68.0,64.0,96,93,85,30.15,29.96,0,0,5,0.62
2013-8-23,77.0,69.9,64.0,68.0,61.1,53.0,96,75,51,30.19,29.96,3,0,10,0.01
2013-8-24,75.0,65.7,56.0,57.0,54.1,50.0,82,68,47,30.43,30.20,3,0,10,0.00
2013-8-25,80.0,66.0,58.0,63.0,53.1,-99.9,94,69,41,30.48,30.31,0,0,4,0.00
2013-8-26,78.0,69.8,64.0,68.0,62.2,57.0,92,77,67,30.32,30.01,0,0,6,0.31
2013-8-27,82.0,71.5,68.0,71.0,67.9,66.0,96,89,65,30.00,29.89,2,0,11,0.45
2013-10-2,78.0,66.5,58.0,63.0,58.4,54.0,90,76,60,30.09,30.01,1,0,8,0.00
2013-10-3,74.0,66.0,59.0,59.0,55.2,51.0,84,69,51,30.22,30.09,0,0,4,0.00
2013-10-4,79.0,67.2,61.0,70.0,62.3,56.0,93,85,69,30.15,30.07,1,0,8,0.10
2013-10-5,71.0,64.3,60.0,65.0,61.3,58.0,95,90,79,30.19,30.11,1,0,5,0.01
2013-10-6,64.0,62.7,62.0,62.0,61.5,61.0,96,95,93,30.20,30.14,4,1,12,0.03
2013-10-7,70.0,65.0,56.0,68.0,63.7,54.0,97,96,93,30.14,29.85,3,0,14,0.47
2013-10-8,62.0,55.0,49.0,54.0,46.5,43.0,93,74,54,30.44,30.04,2,0,17,0.06
2013-10-9,59.0,52.7,47.0,48.0,44.4,40.0,87,74,57,30.52,30.41,6,1,15,0.00
2013-10-10,61.0,54.0,49.0,56.0,49.7,44.0,89,85,80,30.41,30.20,4,1,15,0.01
2013-10-18,63.0,57.9,51.0,61.0,49.6,43.0,95,75,52,30.06,29.75,2,0,9,0.01
2013-10-19,61.0,53.0,46.0,52.0,45.9,41.0,90,77,59,30.08,29.85,0,0,4,0.06
2013-10-20,58.0,50.0,45.0,53.0,40.5,-99.9,93,74,52,30.15,29.84,2,0,8,0.03
2013-10-21,61.0,51.3,44.0,45.0,40.7,38.0,82,68,43,30.24,30.09,1,0,7,0.01
2013-10-22,62.0,52.7,47.0,53.0,47.5,42.0,95,83,63,30.09,29.84,2,0,7,0.01
2013-10-23,51.0,45.5,40.0,42.0,37.6,35.0,86,74,60,29.91,29.72,1,0,7,0.01
2013-10-24,51.0,42.9,37.0,37.0,32.0,29.0,87,67,43,30.09,29.83,1,0,9,0.00
2013-10-25,49.0,44.1,38.0,36.0,32.3,29.0,80,64,52,30.32,30.09,2,0,19,0.00
2013-10-26,50.0,42.7,34.0,37.0,32.5,30.0,92,69,46,30.31,30.00,2,0,10,0.00
2013-10-27,54.0,46.0,39.0,39.0,32.3,-99.9,84,62,45,30.21,29.95,2,0,9,0.01
2013-10-28,57.0,46.1,37.0,37.0,32.6,-99.9,84,64,45,30.42,30.21,1,0,11,0.00
2013-10-29,51.0,43.8,38.0,34.0,30.8,28.0,70,60,50,30.52,30.43,2,0,7,0.00
2013-10-30,56.0,47.5,41.0,48.0,40.0,29.0,90,75,61,30.46,30.29,0,0,4,0.00
2013-12-30,37.0,32.0,19.0,36.0,26.5,11.0,95,81,60,30.29,29.77,3,1,14,0.12
2013-12-31,28.0,22.2,17.0,22.0,13.8,9.0,84,70,55,30.37,30.17,4,1,13,0.00
2014-1-1,30.0,24.6,17.0,19.0,14.3,9.0,77,64,57,30.52,30.37,2,0,10,0.00
2014-1-2,27.0,21.7,13.0,21.0,17.7,10.0,89,85,70,30.39,29.81,7,3,19,0.02